Time,TemperatureF,DewpointF,PressureIn,WindDirection,WindDirectionDegrees,WindSpeedMPH,WindSpeedGustMPH,Humidity,HourlyPrecipIn,Conditions,Clouds,dailyrainin,SoftwareType,DateUTC
2013-02-07 00:00:00,27.9,22.2,29.74,West,270,0.4,2.5,79,0.00,,,0.00,WUHU216HW,2013-02-07 05:00:00,
2013-02-07 00:02:00,27.7,22.1,29.75,West,270,0.4,2.5,79,0.00,,,0.00,WUHU216HW,2013-02-07 05:02:00,
2013-02-07 00:07:00,27.4,21.7,29.75,NNE,23,0.0,1.1,79,0.00,,,0.00,WUHU216HW,2013-02-07 05:07:00,
2013-02-07 00:12:00,27.2,21.8,29.76,West,270,1.3,1.6,80,0.00,,,0.00,WUHU216HW,2013-02-07 05:12:00,
2013-02-07 00:17:00,27.4,22.2,29.76,WSW,248,0.7,1.6,81,0.00,,,0.00,WUHU216HW,2013-02-07 05:17:00,
2013-02-07 00:22:00,27.4,22.0,29.76,NW,315,0.4,1.3,80,0.00,,,0.00,WUHU216HW,2013-02-07 05:22:00,
2013-02-07 00:27:00,27.4,22.2,29.77,West,270,1.1,1.6,81,0.00,,,0.00,WUHU216HW,2013-02-07 05:27:00,
2013-02-07 00:32:00,27.4,22.0,29.77,NNE,23,0.0,1.6,80,0.00,,,0.00,WUHU216HW,2013-02-07 05:32:00,
2013-02-07 00:37:00,27.0,21.3,29.77,East,90,1.8,2.5,79,0.00,,,0.00,WUHU216HW,2013-02-07 05:37:00,
2013-02-07 00:42:00,26.5,21.3,29.78,NE,45,4.7,4.7,81,0.00,,,0.00,WUHU216HW,2013-02-07 05:42:00,
2013-02-07 00:47:00,26.3,21.8,29.78,SW,225,1.1,5.4,83,0.00,,,0.00,WUHU216HW,2013-02-07 05:47:00,
2013-02-07 00:52:00,26.3,21.8,29.78,WSW,248,0.4,5.4,83,0.00,,,0.00,WUHU216HW,2013-02-07 05:52:00,
2013-02-07 00:57:00,26.6,22.2,29.78,ENE,68,0.4,1.1,83,0.00,,,0.00,WUHU216HW,2013-02-07 05:57:00,
2013-02-07 01:02:00,26.5,21.7,29.78,East,90,0.0,1.1,82,0.00,,,0.00,WUHU216HW,2013-02-07 06:02:00,
2013-02-07 01:07:00,26.3,21.5,29.78,West,270,0.9,1.1,82,0.00,,,0.00,WUHU216HW,2013-02-07 06:07:00,
2013-02-07 01:12:00,26.3,21.5,29.77,West,270,0.9,1.1,82,0.00,,,0.00,WUHU216HW,2013-02-07 06:12:00,
2013-02-07 01:17:00,26.1,21.3,29.77,West,270,1.1,1.1,82,0.00,,,0.00,WUHU216HW,2013-02-07 06:17:00,
2013-02-07 01:22:00,26.3,21.8,29.77,NW,315,0.2,1.8,83,0.00,,,0.00,WUHU216HW,2013-02-07 06:22:00,
2013-02-07 01:27:00,26.5,22.0,29.77,NW,315,0.0,1.8,83,0.00,,,0.00,WUHU216HW,2013-02-07 06:27:00,
2013-02-07 01:32:00,26.5,22.0,29.77,NNW,338,0.4,0.7,83,0.00,,,0.00,WUHU216HW,2013-02-07 06:32:00,
2013-02-07 01:37:00,26.1,21.6,29.77,WSW,248,0.0,1.8,83,0.00,,,0.00,WUHU216HW,2013-02-07 06:37:00,
2013-02-07 01:42:00,25.7,21.0,29.77,SW,225,0.0,1.8,82,0.00,,,0.00,WUHU216HW,2013-02-07 06:42:00,
2013-02-07 01:47:00,25.6,20.8,29.78,North,0,0.4,0.9,82,0.00,,,0.00,WUHU216HW,2013-02-07 06:47:00,
2013-02-07 01:52:00,25.6,21.1,29.78,North,0,0.4,1.3,83,0.00,,,0.00,WUHU216HW,2013-02-07 06:52:00,
2013-02-07 01:57:00,25.4,20.7,29.78,ESE,113,1.3,2.0,82,0.00,,,0.00,WUHU216HW,2013-02-07 06:57:00,
2013-02-07 02:02:00,25.0,20.9,29.78,North,0,1.6,3.8,84,0.00,,,0.00,WUHU216HW,2013-02-07 07:02:00,
2013-02-07 02:07:00,24.5,20.3,29.78,ENE,68,0.9,4.3,84,0.00,,,0.00,WUHU216HW,2013-02-07 07:07:00,
2013-02-07 02:12:00,24.3,20.4,29.78,NNE,23,2.0,4.3,85,0.00,,,0.00,WUHU216HW,2013-02-07 07:12:00,
2013-02-07 02:17:00,24.3,20.4,29.78,NE,45,0.0,3.8,85,0.00,,,0.00,WUHU216HW,2013-02-07 07:17:00,
2013-02-07 02:22:00,24.5,20.9,29.78,NNW,338,1.6,2.2,86,0.00,,,0.00,WUHU216HW,2013-02-07 07:22:00,
2013-02-07 02:27:00,24.8,21.2,29.78,North,0,0.0,2.2,86,0.00,,,0.00,WUHU216HW,2013-02-07 07:27:00,
2013-02-07 02:32:00,24.8,21.2,29.78,East,90,0.7,1.6,86,0.00,,,0.00,WUHU216HW,2013-02-07 07:32:00,
2013-02-07 02:37:00,24.8,21.0,29.78,East,90,0.0,1.1,85,0.00,,,0.00,WUHU216HW,2013-02-07 07:37:00,
2013-02-07 02:42:00,25.0,21.2,29.77,WNW,293,0.9,1.8,85,0.00,,,0.00,WUHU216HW,2013-02-07 07:42:00,
2013-02-07 02:47:00,25.2,21.3,29.77,NNW,338,0.0,1.8,85,0.00,,,0.00,WUHU216HW,2013-02-07 07:47:00,
2013-02-07 02:52:00,25.2,21.3,29.76,NE,45,0.9,1.1,85,0.00,,,0.00,WUHU216HW,2013-02-07 07:52:00,
2013-02-07 02:57:00,25.2,21.3,29.76,NNW,338,0.0,1.1,85,0.00,,,0.00,WUHU216HW,2013-02-07 07:57:00,
2013-02-07 03:02:00,25.2,21.3,29.76,North,0,0.0,0.9,85,0.00,,,0.00,WUHU216HW,2013-02-07 08:02:00,
2013-02-07 03:07:00,25.6,22.5,29.76,NW,315,1.8,1.8,88,0.00,,,0.00,WUHU216HW,2013-02-07 08:07:00,
2013-02-07 03:12:00,25.9,22.3,29.76,North,0,0.9,1.8,86,0.00,,,0.00,WUHU216HW,2013-02-07 08:12:00,
2013-02-07 03:17:00,25.7,21.9,29.76,NNW,338,1.1,1.8,85,0.00,,,0.00,WUHU216HW,2013-02-07 08:17:00,
2013-02-07 03:22:00,25.7,22.2,29.76,NNW,338,0.4,1.3,86,0.00,,,0.00,WUHU216HW,2013-02-07 08:22:00,
2013-02-07 03:27:00,25.6,21.7,29.76,NNE,23,0.0,1.8,85,0.00,,,0.00,WUHU216HW,2013-02-07 08:27:00,
2013-02-07 03:32:00,25.6,21.7,29.76,ENE,68,1.8,1.8,85,0.00,,,0.00,WUHU216HW,2013-02-07 08:32:00,
2013-02-07 03:37:00,25.6,21.7,29.76,North,0,0.0,1.8,85,0.00,,,0.00,WUHU216HW,2013-02-07 08:37:00,
2013-02-07 03:42:00,25.9,22.3,29.75,SW,225,1.1,2.7,86,0.00,,,0.00,WUHU216HW,2013-02-07 08:42:00,
2013-02-07 03:47:00,26.3,22.3,29.75,SE,135,1.6,2.7,85,0.00,,,0.00,WUHU216HW,2013-02-07 08:47:00,
2013-02-07 03:52:00,26.5,22.5,29.76,SE,135,0.4,1.6,85,0.00,,,0.00,WUHU216HW,2013-02-07 08:52:00,
2013-02-07 03:57:00,26.8,22.9,29.76,SE,135,0.0,1.3,85,0.00,,,0.00,WUHU216HW,2013-02-07 08:57:00,
2013-02-07 04:02:00,26.5,22.5,29.76,NNE,23,1.6,2.0,85,0.00,,,0.00,WUHU216HW,2013-02-07 09:02:00,
2013-02-07 04:07:00,26.1,22.1,29.76,North,0,0.0,2.2,85,0.00,,,0.00,WUHU216HW,2013-02-07 09:07:00,
2013-02-07 04:12:00,26.1,22.1,29.76,ESE,113,0.0,2.2,85,0.00,,,0.00,WUHU216HW,2013-02-07 09:12:00,
2013-02-07 04:17:00,26.3,22.3,29.76,ESE,113,0.0,1.1,85,0.00,,,0.00,WUHU216HW,2013-02-07 09:17:00,
2013-02-07 04:22:00,26.3,22.3,29.76,ENE,68,1.6,1.6,85,0.00,,,0.00,WUHU216HW,2013-02-07 09:22:00,
2013-02-07 04:27:00,25.6,21.7,29.76,ENE,68,0.2,1.6,85,0.00,,,0.00,WUHU216HW,2013-02-07 09:27:00,
2013-02-07 04:32:00,25.6,21.7,29.76,ENE,68,0.0,1.6,85,0.00,,,0.00,WUHU216HW,2013-02-07 09:32:00,
2013-02-07 04:37:00,25.7,21.9,29.76,NNW,338,0.0,0.2,85,0.00,,,0.00,WUHU216HW,2013-02-07 09:37:00,
2013-02-07 04:42:00,26.1,22.4,29.76,WSW,248,0.4,1.6,86,0.00,,,0.00,WUHU216HW,2013-02-07 09:42:00,
2013-02-07 04:47:00,26.3,22.3,29.76,West,270,0.0,1.6,85,0.00,,,0.00,WUHU216HW,2013-02-07 09:47:00,
2013-02-07 04:52:00,26.3,22.3,29.76,West,270,1.1,1.8,85,0.00,,,0.00,WUHU216HW,2013-02-07 09:52:00,
2013-02-07 04:57:00,26.3,22.3,29.76,WNW,293,0.4,1.8,85,0.00,,,0.00,WUHU216HW,2013-02-07 09:57:00,
2013-02-07 05:02:00,26.1,22.1,29.75,North,0,0.0,1.1,85,0.00,,,0.00,WUHU216HW,2013-02-07 10:02:00,
2013-02-07 05:07:00,26.1,22.1,29.75,North,0,0.0,0.4,85,0.00,,,0.00,WUHU216HW,2013-02-07 10:07:00,
2013-02-07 05:12:00,26.5,22.8,29.76,North,0,0.0,0.0,86,0.00,,,0.00,WUHU216HW,2013-02-07 10:12:00,
2013-02-07 05:17:00,26.8,23.1,29.76,SE,135,0.7,0.7,86,0.00,,,0.00,WUHU216HW,2013-02-07 10:17:00,
2013-02-07 05:22:00,27.0,23.3,29.77,ESE,113,1.1,1.1,86,0.00,,,0.00,WUHU216HW,2013-02-07 10:22:00,
2013-02-07 05:27:00,26.6,22.4,29.77,NE,45,2.0,2.7,84,0.00,,,0.00,WUHU216HW,2013-02-07 10:27:00,
2013-02-07 05:32:00,26.1,22.1,29.77,NNE,23,1.8,2.7,85,0.00,,,0.00,WUHU216HW,2013-02-07 10:32:00,
2013-02-07 05:37:00,25.9,22.0,29.78,NE,45,0.4,2.5,85,0.00,,,0.00,WUHU216HW,2013-02-07 10:37:00,
2013-02-07 05:42:00,25.9,22.3,29.78,NE,45,0.0,1.8,86,0.00,,,0.00,WUHU216HW,2013-02-07 10:42:00,
2013-02-07 05:47:00,26.3,22.6,29.79,WNW,293,0.2,0.7,86,0.00,,,0.00,WUHU216HW,2013-02-07 10:47:00,
2013-02-07 05:52:00,26.3,22.6,29.79,NNE,23,1.8,1.8,86,0.00,,,0.00,WUHU216HW,2013-02-07 10:52:00,
2013-02-07 05:57:00,26.3,22.6,29.79,East,90,0.7,2.0,86,0.00,,,0.00,WUHU216HW,2013-02-07 10:57:00,
2013-02-07 06:02:00,26.3,22.6,29.78,SE,135,0.4,2.0,86,0.00,,,0.00,WUHU216HW,2013-02-07 11:02:00,
2013-02-07 06:07:00,26.6,23.0,29.78,SE,135,1.1,1.8,86,0.00,,,0.00,WUHU216HW,2013-02-07 11:07:00,
2013-02-07 06:12:00,27.0,23.3,29.79,WSW,248,0.4,1.8,86,0.00,,,0.00,WUHU216HW,2013-02-07 11:12:00,
2013-02-07 06:17:00,27.4,23.9,29.78,WSW,248,0.4,1.1,87,0.00,,,0.00,WUHU216HW,2013-02-07 11:17:00,
2013-02-07 06:22:00,27.5,23.9,29.78,WSW,248,0.0,0.9,86,0.00,,,0.00,WUHU216HW,2013-02-07 11:22:00,
2013-02-07 06:27:00,27.5,23.9,29.79,West,270,1.3,1.3,86,0.00,,,0.00,WUHU216HW,2013-02-07 11:27:00,
2013-02-07 06:32:00,27.5,23.9,29.79,West,270,0.0,1.3,86,0.00,,,0.00,WUHU216HW,2013-02-07 11:32:00,
2013-02-07 06:37:00,27.7,24.0,29.79,ESE,113,0.0,1.3,86,0.00,,,0.00,WUHU216HW,2013-02-07 11:37:00,
2013-02-07 06:42:00,27.7,24.0,29.79,WSW,248,0.2,1.1,86,0.00,,,0.00,WUHU216HW,2013-02-07 11:42:00,
2013-02-07 06:47:00,27.9,24.2,29.79,SW,225,0.2,1.1,86,0.00,,,0.00,WUHU216HW,2013-02-07 11:47:00,
2013-02-07 06:52:00,28.1,24.4,29.79,SW,225,0.0,0.7,86,0.00,,,0.00,WUHU216HW,2013-02-07 11:52:00,
2013-02-07 06:57:00,28.3,24.8,29.79,SW,225,0.0,0.2,87,0.00,,,0.00,WUHU216HW,2013-02-07 11:57:00,
2013-02-07 07:02:00,28.4,24.8,29.79,ESE,113,0.0,0.7,86,0.00,,,0.00,WUHU216HW,2013-02-07 12:02:00,
2013-02-07 07:07:00,28.4,24.8,29.79,SW,225,0.2,0.7,86,0.00,,,0.00,WUHU216HW,2013-02-07 12:07:00,
2013-02-07 07:12:00,28.6,25.2,29.79,North,0,0.4,3.4,87,0.00,,,0.00,WUHU216HW,2013-02-07 12:12:00,
2013-02-07 07:17:00,28.6,24.9,29.79,NNE,23,2.2,3.4,86,0.00,,,0.00,WUHU216HW,2013-02-07 12:17:00,
2013-02-07 07:22:00,28.4,24.8,29.79,NE,45,3.1,3.4,86,0.00,,,0.00,WUHU216HW,2013-02-07 12:22:00,
2013-02-07 07:27:00,28.4,24.8,29.79,ENE,68,2.5,4.0,86,0.00,,,0.00,WUHU216HW,2013-02-07 12:27:00,
2013-02-07 07:32:00,28.6,25.2,29.79,NNE,23,3.4,4.0,87,0.00,,,0.00,WUHU216HW,2013-02-07 12:32:00,
2013-02-07 07:37:00,28.8,25.8,29.79,NNE,23,1.3,3.4,88,0.00,,,0.00,WUHU216HW,2013-02-07 12:37:00,
2013-02-07 07:42:00,29.2,26.1,29.79,North,0,0.4,3.4,88,0.00,,,0.00,WUHU216HW,2013-02-07 12:42:00,
2013-02-07 07:47:00,29.2,26.1,29.79,West,270,2.0,2.7,88,0.00,,,0.00,WUHU216HW,2013-02-07 12:47:00,
2013-02-07 07:52:00,29.5,26.1,29.80,West,270,0.2,2.0,87,0.00,,,0.00,WUHU216HW,2013-02-07 12:52:00,
2013-02-07 07:57:00,29.9,26.5,29.80,WNW,293,1.3,2.0,87,0.00,,,0.00,WUHU216HW,2013-02-07 12:57:00,
2013-02-07 08:02:00,30.1,26.6,29.80,WSW,248,1.6,2.5,87,0.00,,,0.00,WUHU216HW,2013-02-07 13:02:00,
2013-02-07 08:07:00,30.6,27.2,29.80,SSW,203,0.7,2.5,87,0.00,,,0.00,WUHU216HW,2013-02-07 13:07:00,
2013-02-07 08:12:00,30.8,27.4,29.80,WSW,248,1.1,1.6,87,0.00,,,0.00,WUHU216HW,2013-02-07 13:12:00,
2013-02-07 08:17:00,31.1,27.5,29.80,West,270,3.4,3.4,86,0.00,,,0.00,WUHU216HW,2013-02-07 13:17:00,
2013-02-07 08:22:00,31.5,27.8,29.80,WSW,248,1.6,3.4,86,0.00,,,0.00,WUHU216HW,2013-02-07 13:22:00,
2013-02-07 08:27:00,31.9,28.2,29.80,ESE,113,1.1,3.4,86,0.00,,,0.00,WUHU216HW,2013-02-07 13:27:00,
2013-02-07 08:32:00,32.0,28.1,29.80,ESE,113,1.1,1.6,85,0.00,,,0.00,WUHU216HW,2013-02-07 13:32:00,
2013-02-07 08:37:00,32.0,28.1,29.80,East,90,1.3,1.8,85,0.00,,,0.00,WUHU216HW,2013-02-07 13:37:00,
2013-02-07 08:42:00,32.0,27.8,29.80,ESE,113,0.0,1.8,84,0.00,,,0.00,WUHU216HW,2013-02-07 13:42:00,
2013-02-07 08:47:00,32.4,28.1,29.80,ESE,113,0.9,1.6,84,0.00,,,0.00,WUHU216HW,2013-02-07 13:47:00,
2013-02-07 08:52:00,32.6,28.3,29.80,ESE,113,0.9,0.9,84,0.00,,,0.00,WUHU216HW,2013-02-07 13:52:00,
2013-02-07 08:57:00,32.8,28.2,29.80,North,0,0.2,1.1,83,0.00,,,0.00,WUHU216HW,2013-02-07 13:57:00,
2013-02-07 09:02:00,33.1,28.4,29.81,SW,225,0.7,2.5,83,0.00,,,0.00,WUHU216HW,2013-02-07 14:02:00,
2013-02-07 09:07:00,33.3,28.6,29.80,ENE,68,0.4,2.5,83,0.00,,,0.00,WUHU216HW,2013-02-07 14:07:00,
2013-02-07 09:12:00,33.5,28.5,29.81,ENE,68,0.9,1.3,82,0.00,,,0.00,WUHU216HW,2013-02-07 14:12:00,
2013-02-07 09:17:00,33.7,28.7,29.81,NE,45,1.1,1.6,82,0.00,,,0.00,WUHU216HW,2013-02-07 14:17:00,
2013-02-07 09:22:00,33.8,28.5,29.81,NE,45,1.3,1.6,81,0.00,,,0.00,WUHU216HW,2013-02-07 14:22:00,
2013-02-07 09:27:00,33.8,28.5,29.80,NNE,23,1.3,2.5,81,0.00,,,0.00,WUHU216HW,2013-02-07 14:27:00,
2013-02-07 09:32:00,34.2,28.9,29.81,ENE,68,0.9,2.5,81,0.00,,,0.00,WUHU216HW,2013-02-07 14:32:00,
2013-02-07 09:37:00,34.2,28.9,29.81,ENE,68,1.6,2.5,81,0.00,,,0.00,WUHU216HW,2013-02-07 14:37:00,
2013-02-07 09:42:00,34.6,29.3,29.81,SSE,158,0.4,1.6,81,0.00,,,0.00,WUHU216HW,2013-02-07 14:42:00,
2013-02-07 09:47:00,35.1,29.5,29.80,ESE,113,0.4,1.6,80,0.00,,,0.00,WUHU216HW,2013-02-07 14:47:00,
2013-02-07 09:52:00,35.5,29.9,29.81,ESE,113,0.4,1.1,80,0.00,,,0.00,WUHU216HW,2013-02-07 14:52:00,
2013-02-07 09:57:00,35.6,29.7,29.80,SW,225,0.9,1.8,79,0.00,,,0.00,WUHU216HW,2013-02-07 14:57:00,
2013-02-07 10:02:00,36.0,30.1,29.81,SE,135,1.1,1.8,79,0.00,,,0.00,WUHU216HW,2013-02-07 15:02:00,
2013-02-07 10:07:00,36.4,30.4,29.81,WSW,248,0.0,1.1,79,0.00,,,0.00,WUHU216HW,2013-02-07 15:07:00,
2013-02-07 10:12:00,36.7,30.5,29.80,SE,135,1.3,1.8,78,0.00,,,0.00,WUHU216HW,2013-02-07 15:12:00,
2013-02-07 10:17:00,37.1,30.9,29.80,SE,135,0.7,1.8,78,0.00,,,0.00,WUHU216HW,2013-02-07 15:17:00,
2013-02-07 10:22:00,37.3,30.7,29.80,SSE,158,1.1,1.6,77,0.00,,,0.00,WUHU216HW,2013-02-07 15:22:00,
2013-02-07 10:27:00,37.6,30.8,29.80,SSW,203,1.1,1.1,76,0.00,,,0.00,WUHU216HW,2013-02-07 15:27:00,
2013-02-07 10:32:00,37.8,30.9,29.80,SE,135,1.1,1.3,76,0.00,,,0.00,WUHU216HW,2013-02-07 15:32:00,
2013-02-07 10:37:00,38.2,31.2,29.79,SE,135,0.4,1.3,76,0.00,,,0.00,WUHU216HW,2013-02-07 15:37:00,
2013-02-07 10:42:00,38.5,32.0,29.79,SSW,203,1.3,1.3,77,0.00,,,0.00,WUHU216HW,2013-02-07 15:42:00,
2013-02-07 10:47:00,38.9,31.6,29.79,South,180,0.2,1.3,75,0.00,,,0.00,WUHU216HW,2013-02-07 15:47:00,
2013-02-07 10:52:00,39.1,31.8,29.79,WSW,248,1.6,1.6,75,0.00,,,0.00,WUHU216HW,2013-02-07 15:52:00,
2013-02-07 10:57:00,39.2,32.0,29.79,SSE,158,1.1,2.0,75,0.00,,,0.00,WUHU216HW,2013-02-07 15:57:00,
2013-02-07 11:02:00,40.0,32.3,29.79,SE,135,2.5,2.9,74,0.00,,,0.00,WUHU216HW,2013-02-07 16:02:00,
2013-02-07 11:07:00,40.1,31.5,29.78,SW,225,5.8,5.8,71,0.00,,,0.00,WUHU216HW,2013-02-07 16:07:00,
2013-02-07 11:12:00,40.1,31.8,29.78,WSW,248,2.9,5.8,72,0.00,,,0.00,WUHU216HW,2013-02-07 16:12:00,
2013-02-07 11:17:00,40.5,31.9,29.78,SW,225,4.7,5.8,71,0.00,,,0.00,WUHU216HW,2013-02-07 16:17:00,
2013-02-07 11:22:00,40.7,31.3,29.77,SE,135,3.6,4.7,69,0.00,,,0.00,WUHU216HW,2013-02-07 16:22:00,
2013-02-07 11:27:00,40.7,32.1,29.77,SSW,203,3.4,4.7,71,0.00,,,0.00,WUHU216HW,2013-02-07 16:27:00,
2013-02-07 11:32:00,41.0,31.7,29.77,SW,225,3.4,5.1,69,0.00,,,0.00,WUHU216HW,2013-02-07 16:32:00,
2013-02-07 11:37:00,40.9,30.7,29.77,SSW,203,4.0,5.1,67,0.00,,,0.00,WUHU216HW,2013-02-07 16:37:00,
2013-02-07 11:42:00,40.7,30.5,29.77,SSW,203,5.1,5.6,67,0.00,,,0.00,WUHU216HW,2013-02-07 16:42:00,
2013-02-07 11:47:00,40.7,30.5,29.76,SSE,158,4.7,5.6,67,0.00,,,0.00,WUHU216HW,2013-02-07 16:47:00,
2013-02-07 11:52:00,41.0,30.9,29.76,SW,225,4.0,5.6,67,0.00,,,0.00,WUHU216HW,2013-02-07 16:52:00,
2013-02-07 11:57:00,41.0,30.9,29.76,SE,135,2.9,5.6,67,0.00,,,0.00,WUHU216HW,2013-02-07 16:57:00,
2013-02-07 12:02:00,41.4,31.2,29.76,South,180,4.5,4.5,67,0.00,,,0.00,WUHU216HW,2013-02-07 17:02:00,
2013-02-07 12:07:00,41.6,31.4,29.75,SSE,158,4.5,4.5,67,0.00,,,0.00,WUHU216HW,2013-02-07 17:07:00,
2013-02-07 12:12:00,42.1,32.0,29.75,SW,225,4.7,4.7,67,0.00,,,0.00,WUHU216HW,2013-02-07 17:12:00,
2013-02-07 12:17:00,42.1,31.6,29.75,SW,225,5.4,5.4,66,0.00,,,0.00,WUHU216HW,2013-02-07 17:17:00,
2013-02-07 12:22:00,42.1,32.0,29.74,SSE,158,4.7,5.4,67,0.00,,,0.00,WUHU216HW,2013-02-07 17:22:00,
2013-02-07 12:27:00,42.1,31.6,29.74,WSW,248,5.4,7.6,66,0.00,,,0.00,WUHU216HW,2013-02-07 17:27:00,
2013-02-07 12:32:00,42.3,31.3,29.74,SW,225,4.3,7.6,65,0.00,,,0.00,WUHU216HW,2013-02-07 17:32:00,
2013-02-07 12:37:00,42.5,31.5,29.74,SSW,203,4.0,5.4,65,0.00,,,0.00,WUHU216HW,2013-02-07 17:37:00,
2013-02-07 12:42:00,42.8,32.2,29.74,SSE,158,3.8,4.7,66,0.00,,,0.00,WUHU216HW,2013-02-07 17:42:00,
2013-02-07 12:47:00,43.2,31.8,29.73,SE,135,3.4,4.5,64,0.00,,,0.00,WUHU216HW,2013-02-07 17:47:00,
2013-02-07 12:52:00,43.4,32.4,29.73,SSE,158,2.5,4.7,65,0.00,,,0.00,WUHU216HW,2013-02-07 17:52:00,
2013-02-07 12:57:00,43.6,31.8,29.73,South,180,6.5,6.5,63,0.00,,,0.00,WUHU216HW,2013-02-07 17:57:00,
2013-02-07 13:02:00,43.9,32.5,29.73,SE,135,2.7,6.5,64,0.00,,,0.00,WUHU216HW,2013-02-07 18:02:00,
2013-02-07 13:07:00,44.3,32.5,29.72,SW,225,2.2,6.5,63,0.00,,,0.00,WUHU216HW,2013-02-07 18:07:00,
2013-02-07 13:12:00,44.1,32.3,29.72,SSW,203,3.1,4.9,63,0.00,,,0.00,WUHU216HW,2013-02-07 18:12:00,
2013-02-07 13:17:00,43.6,31.8,29.72,SSE,158,2.7,4.9,63,0.00,,,0.00,WUHU216HW,2013-02-07 18:17:00,
2013-02-07 13:22:00,43.4,31.6,29.72,SSE,158,2.5,4.7,63,0.00,,,0.00,WUHU216HW,2013-02-07 18:22:00,
2013-02-07 13:27:00,43.2,31.4,29.72,SSE,158,5.1,6.5,63,0.00,,,0.00,WUHU216HW,2013-02-07 18:27:00,
2013-02-07 13:32:00,43.0,31.2,29.71,SSE,158,4.0,6.5,63,0.00,,,0.00,WUHU216HW,2013-02-07 18:32:00,
2013-02-07 13:37:00,42.8,31.1,29.71,SW,225,5.6,5.6,63,0.00,,,0.00,WUHU216HW,2013-02-07 18:37:00,
2013-02-07 13:42:00,42.8,31.5,29.71,SSW,203,3.4,5.6,64,0.00,,,0.00,WUHU216HW,2013-02-07 18:42:00,
2013-02-07 13:47:00,42.8,31.1,29.71,SW,225,4.0,6.9,63,0.00,,,0.00,WUHU216HW,2013-02-07 18:47:00,
2013-02-07 13:52:00,43.2,31.4,29.71,SSW,203,2.5,6.9,63,0.00,,,0.00,WUHU216HW,2013-02-07 18:52:00,
2013-02-07 13:57:00,43.2,31.4,29.70,SSW,203,4.5,5.4,63,0.00,,,0.00,WUHU216HW,2013-02-07 18:57:00,
2013-02-07 14:02:00,43.4,32.0,29.70,SE,135,2.2,5.4,64,0.00,,,0.00,WUHU216HW,2013-02-07 19:02:00,
2013-02-07 14:07:00,43.6,32.1,29.70,SSW,203,3.4,4.5,64,0.00,,,0.00,WUHU216HW,2013-02-07 19:07:00,
2013-02-07 14:12:00,43.4,31.6,29.69,South,180,3.4,4.5,63,0.00,,,0.00,WUHU216HW,2013-02-07 19:12:00,
2013-02-07 14:17:00,43.4,31.6,29.69,South,180,4.7,4.7,63,0.00,,,0.00,WUHU216HW,2013-02-07 19:17:00,
2013-02-07 14:22:00,43.4,31.6,29.69,SSE,158,2.9,4.7,63,0.00,,,0.00,WUHU216HW,2013-02-07 19:22:00,
2013-02-07 14:27:00,43.2,31.8,29.69,SW,225,2.2,4.7,64,0.00,,,0.00,WUHU216HW,2013-02-07 19:27:00,
2013-02-07 14:32:00,43.6,32.1,29.68,SW,225,1.8,3.4,64,0.00,,,0.00,WUHU216HW,2013-02-07 19:32:00,
2013-02-07 14:37:00,43.6,32.1,29.69,SE,135,3.4,3.4,64,0.00,,,0.00,WUHU216HW,2013-02-07 19:37:00,
2013-02-07 14:42:00,43.7,32.0,29.69,South,180,2.9,3.4,63,0.00,,,0.00,WUHU216HW,2013-02-07 19:42:00,
2013-02-07 14:47:00,43.7,32.0,29.69,SSW,203,2.0,4.5,63,0.00,,,0.00,WUHU216HW,2013-02-07 19:47:00,
2013-02-07 14:52:00,43.4,31.6,29.69,SSW,203,5.4,5.4,63,0.00,,,0.00,WUHU216HW,2013-02-07 19:52:00,
2013-02-07 14:57:00,43.2,31.8,29.68,SSW,203,2.2,5.4,64,0.00,,,0.00,WUHU216HW,2013-02-07 19:57:00,
2013-02-07 15:02:00,43.0,31.7,29.68,South,180,3.4,5.4,64,0.00,,,0.00,WUHU216HW,2013-02-07 20:02:00,
2013-02-07 15:07:00,42.8,31.5,29.68,SSE,158,2.0,3.4,64,0.00,,,0.00,WUHU216HW,2013-02-07 20:07:00,
2013-02-07 15:12:00,42.8,31.5,29.68,South,180,2.2,3.4,64,0.00,,,0.00,WUHU216HW,2013-02-07 20:12:00,
2013-02-07 15:17:00,42.8,31.5,29.67,SE,135,2.5,2.5,64,0.00,,,0.00,WUHU216HW,2013-02-07 20:17:00,
2013-02-07 15:22:00,42.8,31.1,29.67,ESE,113,1.6,2.5,63,0.00,,,0.00,WUHU216HW,2013-02-07 20:22:00,
2013-02-07 15:27:00,42.7,30.9,29.67,SE,135,3.1,3.1,63,0.00,,,0.00,WUHU216HW,2013-02-07 20:27:00,
2013-02-07 15:32:00,42.5,30.7,29.67,SE,135,2.0,3.1,63,0.00,,,0.00,WUHU216HW,2013-02-07 20:32:00,
2013-02-07 15:37:00,42.3,30.6,29.66,SSE,158,3.8,3.8,63,0.00,,,0.00,WUHU216HW,2013-02-07 20:37:00,
2013-02-07 15:42:00,42.3,30.6,29.66,South,180,4.0,4.0,63,0.00,,,0.00,WUHU216HW,2013-02-07 20:42:00,
2013-02-07 15:47:00,42.1,30.8,29.66,SSW,203,2.7,4.0,64,0.00,,,0.00,WUHU216HW,2013-02-07 20:47:00,
2013-02-07 15:52:00,42.1,30.8,29.66,SW,225,3.8,4.0,64,0.00,,,0.00,WUHU216HW,2013-02-07 20:52:00,
2013-02-07 15:57:00,42.1,30.8,29.66,South,180,2.2,3.8,64,0.00,,,0.00,WUHU216HW,2013-02-07 20:57:00,
2013-02-07 16:02:00,42.1,30.8,29.66,SE,135,3.4,3.8,64,0.00,,,0.00,WUHU216HW,2013-02-07 21:02:00,
2013-02-07 16:07:00,42.1,30.8,29.66,SSE,158,2.2,3.8,64,0.00,,,0.00,WUHU216HW,2013-02-07 21:07:00,
2013-02-07 16:12:00,41.9,30.6,29.65,SSW,203,3.4,4.5,64,0.00,,,0.00,WUHU216HW,2013-02-07 21:12:00,
2013-02-07 16:17:00,41.8,30.9,29.65,SSW,203,3.1,4.5,65,0.00,,,0.00,WUHU216HW,2013-02-07 21:17:00,
2013-02-07 16:22:00,41.6,30.7,29.66,SW,225,3.6,4.5,65,0.00,,,0.00,WUHU216HW,2013-02-07 21:22:00,
2013-02-07 16:27:00,41.4,30.2,29.66,SW,225,4.0,4.5,64,0.00,,,0.00,WUHU216HW,2013-02-07 21:27:00,
2013-02-07 16:32:00,41.0,29.8,29.66,SSW,203,3.4,4.3,64,0.00,,,0.00,WUHU216HW,2013-02-07 21:32:00,
2013-02-07 16:37:00,40.7,29.8,29.66,SW,225,4.7,6.3,65,0.00,,,0.00,WUHU216HW,2013-02-07 21:37:00,
2013-02-07 16:42:00,40.5,30.0,29.66,SSW,203,4.7,6.3,66,0.00,,,0.00,WUHU216HW,2013-02-07 21:42:00,
2013-02-07 16:47:00,40.3,29.8,29.66,WSW,248,4.7,5.4,66,0.00,,,0.00,WUHU216HW,2013-02-07 21:47:00,
2013-02-07 16:52:00,40.1,30.0,29.66,SSW,203,6.7,6.7,67,0.00,,,0.00,WUHU216HW,2013-02-07 21:52:00,
2013-02-07 16:57:00,40.0,29.8,29.67,SSW,203,3.4,6.7,67,0.00,,,0.00,WUHU216HW,2013-02-07 21:57:00,
2013-02-07 17:02:00,40.0,29.8,29.66,SSW,203,5.4,5.4,67,0.00,,,0.00,WUHU216HW,2013-02-07 22:02:00,
2013-02-07 17:07:00,39.8,29.6,29.67,SSE,158,4.5,5.4,67,0.00,,,0.00,WUHU216HW,2013-02-07 22:07:00,
2013-02-07 17:12:00,39.8,29.6,29.67,South,180,4.3,5.4,67,0.00,,,0.00,WUHU216HW,2013-02-07 22:12:00,
2013-02-07 17:17:00,39.6,29.4,29.67,SSE,158,2.2,4.5,67,0.00,,,0.00,WUHU216HW,2013-02-07 22:17:00,
2013-02-07 17:22:00,39.4,29.3,29.66,SSW,203,4.7,4.7,67,0.00,,,0.00,WUHU216HW,2013-02-07 22:22:00,
2013-02-07 17:27:00,39.2,29.1,29.67,SW,225,3.6,5.6,67,0.00,,,0.00,WUHU216HW,2013-02-07 22:27:00,
2013-02-07 17:32:00,38.9,28.8,29.67,SW,225,4.0,5.6,67,0.00,,,0.00,WUHU216HW,2013-02-07 22:32:00,
2013-02-07 17:37:00,38.7,29.0,29.67,SSW,203,3.6,4.0,68,0.00,,,0.00,WUHU216HW,2013-02-07 22:37:00,
2013-02-07 17:42:00,38.5,28.8,29.67,SW,225,3.6,4.7,68,0.00,,,0.00,WUHU216HW,2013-02-07 22:42:00,
2013-02-07 17:47:00,38.5,28.8,29.67,SSW,203,2.0,4.7,68,0.00,,,0.00,WUHU216HW,2013-02-07 22:47:00,
2013-02-07 17:52:00,38.3,28.7,29.68,SSE,158,3.4,4.3,68,0.00,,,0.00,WUHU216HW,2013-02-07 22:52:00,
2013-02-07 17:57:00,38.3,28.3,29.67,SSE,158,4.7,4.7,67,0.00,,,0.00,WUHU216HW,2013-02-07 22:57:00,
2013-02-07 18:02:00,38.0,28.0,29.67,SSW,203,5.4,5.4,67,0.00,,,0.00,WUHU216HW,2013-02-07 23:02:00,
2013-02-07 18:07:00,37.8,27.8,29.68,South,180,3.6,5.4,67,0.00,,,0.00,WUHU216HW,2013-02-07 23:07:00,
2013-02-07 18:12:00,37.6,27.6,29.67,SSE,158,3.8,5.4,67,0.00,,,0.00,WUHU216HW,2013-02-07 23:12:00,
2013-02-07 18:17:00,37.4,27.5,29.68,SSE,158,3.4,3.8,67,0.00,,,0.00,WUHU216HW,2013-02-07 23:17:00,
2013-02-07 18:22:00,37.3,27.3,29.67,SSE,158,3.1,4.3,67,0.00,,,0.00,WUHU216HW,2013-02-07 23:22:00,
2013-02-07 18:27:00,37.1,27.6,29.67,SSW,203,4.0,4.3,68,0.00,,,0.00,WUHU216HW,2013-02-07 23:27:00,
2013-02-07 18:32:00,36.9,27.4,29.67,SSE,158,2.0,4.0,68,0.00,,,0.00,WUHU216HW,2013-02-07 23:32:00,
2013-02-07 18:37:00,36.7,27.2,29.67,SSE,158,2.5,4.0,68,0.00,,,0.00,WUHU216HW,2013-02-07 23:37:00,
2013-02-07 18:42:00,36.7,27.2,29.66,SE,135,3.4,3.6,68,0.00,,,0.00,WUHU216HW,2013-02-07 23:42:00,
2013-02-07 18:47:00,36.5,27.0,29.67,SW,225,2.5,3.4,68,0.00,,,0.00,WUHU216HW,2013-02-07 23:47:00,
2013-02-07 18:52:00,36.5,27.0,29.67,SSW,203,4.9,4.9,68,0.00,,,0.00,WUHU216HW,2013-02-07 23:52:00,
2013-02-07 18:57:00,36.5,27.4,29.66,SW,225,2.9,5.4,69,0.00,,,0.00,WUHU216HW,2013-02-07 23:57:00,
2013-02-07 19:02:00,36.7,27.6,29.66,SSW,203,3.8,5.4,69,0.00,,,0.00,WUHU216HW,2013-02-08 00:02:00,
2013-02-07 19:07:00,36.7,27.6,29.66,SW,225,3.6,4.7,69,0.00,,,0.00,WUHU216HW,2013-02-08 00:07:00,
2013-02-07 19:12:00,36.9,27.7,29.66,SW,225,3.6,4.5,69,0.00,,,0.00,WUHU216HW,2013-02-08 00:12:00,
2013-02-07 19:17:00,36.9,27.7,29.66,SW,225,3.4,4.5,69,0.00,,,0.00,WUHU216HW,2013-02-08 00:17:00,
2013-02-07 19:22:00,37.1,28.3,29.66,SSW,203,4.3,4.5,70,0.00,,,0.00,WUHU216HW,2013-02-08 00:22:00,
2013-02-07 19:27:00,37.1,27.9,29.66,SSW,203,3.4,4.5,69,0.00,,,0.00,WUHU216HW,2013-02-08 00:27:00,
2013-02-07 19:32:00,37.1,27.9,29.66,SSW,203,1.8,4.3,69,0.00,,,0.00,WUHU216HW,2013-02-08 00:32:00,
2013-02-07 19:37:00,37.1,27.9,29.66,SW,225,1.8,3.4,69,0.00,,,0.00,WUHU216HW,2013-02-08 00:37:00,
2013-02-07 19:42:00,37.1,28.3,29.65,SW,225,1.6,3.8,70,0.00,,,0.00,WUHU216HW,2013-02-08 00:42:00,
2013-02-07 19:47:00,37.1,28.3,29.65,WSW,248,3.1,3.8,70,0.00,,,0.00,WUHU216HW,2013-02-08 00:47:00,
2013-02-07 19:52:00,37.1,28.3,29.65,WSW,248,4.7,4.7,70,0.00,,,0.00,WUHU216HW,2013-02-08 00:52:00,
2013-02-07 19:57:00,37.1,28.3,29.64,WSW,248,4.3,4.7,70,0.00,,,0.00,WUHU216HW,2013-02-08 00:57:00,
2013-02-07 20:02:00,36.9,28.1,29.64,WSW,248,3.6,4.9,70,0.00,,,0.00,WUHU216HW,2013-02-08 01:02:00,
2013-02-07 20:07:00,36.9,28.1,29.64,WSW,248,5.1,6.3,70,0.00,,,0.00,WUHU216HW,2013-02-08 01:07:00,
2013-02-07 20:12:00,36.9,28.1,29.64,SSW,203,4.5,6.7,70,0.00,,,0.00,WUHU216HW,2013-02-08 01:12:00,
2013-02-07 20:17:00,37.1,28.3,29.64,SSW,203,2.5,6.7,70,0.00,,,0.00,WUHU216HW,2013-02-08 01:17:00,
2013-02-07 20:22:00,37.1,28.3,29.64,SW,225,2.5,5.1,70,0.00,,,0.00,WUHU216HW,2013-02-08 01:22:00,
2013-02-07 20:27:00,37.1,27.9,29.64,SW,225,4.5,4.5,69,0.00,,,0.00,WUHU216HW,2013-02-08 01:27:00,
2013-02-07 20:32:00,37.1,28.3,29.64,SSW,203,4.0,7.4,70,0.00,,,0.00,WUHU216HW,2013-02-08 01:32:00,
2013-02-07 20:37:00,37.1,28.3,29.64,SSW,203,2.7,7.4,70,0.00,,,0.00,WUHU216HW,2013-02-08 01:37:00,
2013-02-07 20:42:00,37.1,28.3,29.63,SSE,158,3.4,5.1,70,0.00,,,0.00,WUHU216HW,2013-02-08 01:42:00,
2013-02-07 20:47:00,37.1,28.3,29.63,SW,225,2.5,5.1,70,0.00,,,0.00,WUHU216HW,2013-02-08 01:47:00,
2013-02-07 20:52:00,37.1,28.3,29.63,WSW,248,4.5,6.5,70,0.00,,,0.00,WUHU216HW,2013-02-08 01:52:00,
2013-02-07 20:57:00,37.1,28.3,29.63,WSW,248,3.6,6.9,70,0.00,,,0.00,WUHU216HW,2013-02-08 01:57:00,
2013-02-07 21:02:00,37.3,28.4,29.63,WSW,248,3.4,6.9,70,0.00,,,0.00,WUHU216HW,2013-02-08 02:02:00,
2013-02-07 21:07:00,37.3,28.4,29.63,WSW,248,8.5,8.5,70,0.00,,,0.00,WUHU216HW,2013-02-08 02:07:00,
2013-02-07 21:12:00,37.3,28.8,29.63,SW,225,3.4,8.5,71,0.00,,,0.00,WUHU216HW,2013-02-08 02:12:00,
2013-02-07 21:17:00,37.3,28.8,29.63,SSW,203,3.4,8.5,71,0.00,,,0.00,WUHU216HW,2013-02-08 02:17:00,
2013-02-07 21:22:00,37.4,29.0,29.63,SW,225,1.8,4.3,71,0.00,,,0.00,WUHU216HW,2013-02-08 02:22:00,
2013-02-07 21:27:00,37.4,29.0,29.63,South,180,1.8,4.3,71,0.00,,,0.00,WUHU216HW,2013-02-08 02:27:00,
2013-02-07 21:32:00,37.4,29.0,29.63,SSW,203,1.8,3.4,71,0.00,,,0.00,WUHU216HW,2013-02-08 02:32:00,
2013-02-07 21:37:00,37.4,29.0,29.63,SW,225,4.0,4.0,71,0.00,,,0.00,WUHU216HW,2013-02-08 02:37:00,
2013-02-07 21:42:00,37.6,29.1,29.62,SW,225,5.4,5.6,71,0.00,,,0.00,WUHU216HW,2013-02-08 02:42:00,
2013-02-07 21:47:00,37.4,29.0,29.62,WSW,248,2.7,5.6,71,0.00,,,0.00,WUHU216HW,2013-02-08 02:47:00,
2013-02-07 21:52:00,37.6,29.1,29.62,SW,225,2.5,5.4,71,0.00,,,0.00,WUHU216HW,2013-02-08 02:52:00,
2013-02-07 21:57:00,37.6,29.1,29.62,WSW,248,4.0,4.3,71,0.00,,,0.00,WUHU216HW,2013-02-08 02:57:00,
2013-02-07 22:02:00,37.6,29.1,29.62,WSW,248,2.5,4.0,71,0.00,,,0.00,WUHU216HW,2013-02-08 03:02:00,
2013-02-07 22:07:00,37.8,29.6,29.62,WSW,248,3.4,5.6,72,0.00,,,0.00,WUHU216HW,2013-02-08 03:07:00,
2013-02-07 22:12:00,37.6,29.4,29.62,WSW,248,3.6,5.6,72,0.00,,,0.00,WUHU216HW,2013-02-08 03:12:00,
2013-02-07 22:17:00,37.8,29.6,29.61,WSW,248,4.0,4.0,72,0.00,,,0.00,WUHU216HW,2013-02-08 03:17:00,
2013-02-07 22:22:00,37.8,29.6,29.61,WSW,248,3.1,4.0,72,0.00,,,0.00,WUHU216HW,2013-02-08 03:22:00,
2013-02-07 22:27:00,37.6,29.4,29.61,West,270,2.7,4.0,72,0.00,,,0.00,WUHU216HW,2013-02-08 03:27:00,
2013-02-07 22:32:00,37.6,29.4,29.61,WSW,248,1.8,3.4,72,0.00,,,0.00,WUHU216HW,2013-02-08 03:32:00,
2013-02-07 22:37:00,37.4,29.3,29.60,West,270,2.0,3.4,72,0.00,,,0.00,WUHU216HW,2013-02-08 03:37:00,
2013-02-07 22:43:00,37.4,29.3,29.60,WNW,293,1.6,2.5,72,0.00,,,0.00,WUHU216HW,2013-02-08 03:43:00,
2013-02-07 22:48:00,37.4,29.6,29.60,West,270,2.5,2.5,73,0.00,,,0.00,WUHU216HW,2013-02-08 03:48:00,
2013-02-07 22:53:00,37.3,29.4,29.60,West,270,1.8,2.5,73,0.00,,,0.00,WUHU216HW,2013-02-08 03:53:00,
2013-02-07 22:58:00,37.3,29.4,29.59,WSW,248,1.1,2.5,73,0.00,,,0.00,WUHU216HW,2013-02-08 03:58:00,
2013-02-07 23:03:00,37.3,29.4,29.59,SW,225,0.7,2.0,73,0.00,,,0.00,WUHU216HW,2013-02-08 04:03:00,
2013-02-07 23:07:00,37.3,29.4,29.59,WSW,248,1.1,2.0,73,0.00,,,0.00,WUHU216HW,2013-02-08 04:07:00,
2013-02-07 23:12:00,37.3,29.4,29.59,WSW,248,1.6,2.5,73,0.00,,,0.00,WUHU216HW,2013-02-08 04:12:00,
2013-02-07 23:17:00,37.3,29.7,29.59,West,270,0.4,2.5,74,0.00,,,0.00,WUHU216HW,2013-02-08 04:17:00,
2013-02-07 23:22:00,37.3,29.7,29.58,SE,135,1.1,2.2,74,0.00,,,0.00,WUHU216HW,2013-02-08 04:22:00,
2013-02-07 23:27:00,37.3,29.7,29.58,WSW,248,0.0,1.3,74,0.00,,,0.00,WUHU216HW,2013-02-08 04:27:00,
2013-02-07 23:32:00,37.3,29.7,29.58,WNW,293,0.4,1.8,74,0.00,,,0.00,WUHU216HW,2013-02-08 04:32:00,
2013-02-07 23:37:00,37.3,29.7,29.58,WSW,248,0.0,1.8,74,0.00,,,0.00,WUHU216HW,2013-02-08 04:37:00,
2013-02-07 23:42:00,37.3,29.7,29.58,West,270,0.0,0.4,74,0.00,,,0.00,WUHU216HW,2013-02-08 04:42:00,
2013-02-07 23:47:00,37.3,29.7,29.57,West,270,1.1,1.1,74,0.00,,,0.00,WUHU216HW,2013-02-08 04:47:00,
2013-02-07 23:53:00,37.3,30.1,29.57,NNW,338,1.8,2.0,75,0.00,,,0.00,WUHU216HW,2013-02-08 04:53:00,
2013-02-07 23:58:00,37.3,30.1,29.57,NW,315,1.6,2.0,75,0.00,,,0.00,WUHU216HW,2013-02-08 04:58:00,